User: anonymous   Login
Location: Goheenville
(40.9070°N, 79.3720°W)
Time: 23:11:42
(UTC-05:00)
Language:

NOAA 11 - Orbit

View from above orbital plane
View from above orbital plane
View from above satellite
View from above satellite

Ground track
Ground track

The orbit data is extracted from the following two-line orbital elements,

1 19531U 88089A   17344.59037139 -.00000025 +00000-0 +85404-5 0  9992
2 19531 098.5280 035.6179 0010184 249.3972 110.6110 14.15218713507458
Epoch (UTC): 10 December 2017 14:10:08
Eccentricity: 0.0010184
inclination: 98.5280°
perigee height: 834 km
apogee height: 849 km
right ascension of ascending node: 35.6179°
argument of perigee: 249.3972°
revolutions per day: 14.15218713
mean anomaly at epoch: 110.6110°
orbit number at epoch: 50745

The dashed part of the orbit path shows where the satellite is in the earth's shadow,  

DLR